• Processing (Info)

  • MPEC 2022-V62 : 2022 UP28

    The following Minor Planet Electronic Circular may be linked-to from your own Web pages, but must not otherwise be redistributed electronically.

    A form allowing access to any MPEC is at the bottom of this page.


    Read MPEC 2022-V61 Read MPEC 2022-V63


    M.P.E.C. 2022-V62                              Issued 2022 November 2, 14:56 UT
    
         The Minor Planet Electronic Circulars contain information on unusual
             minor planets, routine data on comets and natural satellites,
             and occasional editorial announcements.  They are published
        on behalf of Division F of the International Astronomical Union by the
              Minor Planet Center, Smithsonian Astrophysical Observatory,
                              Cambridge, MA 02138, U.S.A.
    			  
                 Prepared using the Tamkin Foundation Computer Network
    
                                  MPC@CFA.HARVARD.EDU
                URL https://www.minorplanetcenter.net/    ISSN 1523-6714
    
                                    2022 UP28                                
    
    
    Observations:
         K22U28P* C2022 10 21.53305804 31 15.202-07 35 28.26         21.55wUEV062F52
         K22U28P  C2022 10 21.54465504 31 17.887-07 35 28.53         21.89wUEV062F52
         K22U28P  C2022 10 21.55629504 31 20.540-07 35 27.91         21.86wUEV062F52
         K22U28P  C2022 10 21.56793104 31 23.237-07 35 27.75         21.82wUEV062F52
         K22U28P  C2022 10 21.62991204 31 37.411-07 35 27.55         22.24GVEV062F52
         K22U28P  C2022 10 21.63054104 31 37.581-07 35 27.55         21.36GVEV062F52
         K22U28P  C2022 10 23.50421304 39 47.677-07 34 11.26         21.69GVEV062F51
         K22U28P  C2022 10 23.51676304 39 50.965-07 34 10.46         21.62GVEV062F51
         K22U28P  C2022 10 23.54192504 39 57.570-07 34 08.18         21.71GVEV062F51
         K22U28P  C2022 10 23.54872404 39 59.370-07 34 07.62         21.73GVEV062F51
         K22U28P  C2022 10 23.54953504 39 59.570-07 34 07.31         21.68GVEV062F51
         K22U28P  C2022 10 31.55338705 33 47.839-06 41 08.08         21.36wUEV062F51
         K22U28P  C2022 10 31.56734105 33 55.671-06 40 55.67         21.18wUEV062F51
         K22U28P  C2022 10 31.58125605 34 03.468-06 40 43.23         20.75wUEV062F51
         K22U28P  C2022 10 31.59518905 34 11.297-06 40 30.78         20.82wUEV062F51
    
    Observer details:
    F51 Pan-STARRS 1, Haleakala.  Observers J. Bulger, K. Chambers, T. Lowe, A.
        Schultz, I. Smith.  Measurers S. Chastel, J. Fairlamb, M. Huber, Y.
        Ramanjooloo, R. Wainscoat, R. Weryk, K. Chambers, T. de Boer, H. Gao,
        C.-C. Lin, E. Magnier.  1.8-m Ritchey-Chretien + CCD.
    F52 Pan-STARRS 2, Haleakala.  Observers J. Bulger, T. Lowe, A. Schultz, I.
        Smith, K. Chambers, T. Dukes.  Measurers K. Chambers, S. Chastel, T. de
        Boer, J. Fairlamb, H. Gao, M. Huber, C.-C. Lin, E. Magnier, Y.
        Ramanjooloo, R. Wainscoat, R. Weryk.  1.8-m Ritchey-Chretien + CCD.
    
    Orbital elements:
    2022 UP28                                                Earth MOID = 0.0141 AU
    Epoch 2022 Aug. 9.0 TT = JDT 2459800.5                  Bell                    
    M 307.16943              (2000.0)            P               Q                  
    n   0.38508893     Peri.   58.41385     -0.43130935     -0.88037013             
    a   1.8710930      Node    58.39668     +0.72922710     -0.46893243             
    e   0.5761419      Incl.   13.39338     +0.53122508     -0.07106899             
    P   2.56           H   23.30          G   0.15           U   8                  
    Residuals in seconds of arc
    221021 F52  0.6-  0.1-    221021 F52  0.1-  0.2-    221023 F51  0.2-  0.3+
    221021 F52  0.0   0.4-    221023 F51  0.3+  0.0     221031 F51  0.2-  0.1-
    221021 F52  0.0   0.2+    221023 F51  0.1+  0.2-    221031 F51  0.1+  0.0
    221021 F52  0.6+  0.3+    221023 F51  0.1-  0.0     221031 F51  0.0   0.1+
    221021 F52  0.4-  0.2-    221023 F51  0.0   0.0     221031 F51  0.1+  0.1+
    
    Ephemeris:
    2022 UP28                a,e,i = 1.87, 0.58, 13                  q = 0.7931
    Date    TT    R. A. (2000) Decl.     Delta      r    Elong.  Phase     V
    2022 10 03    03 42 01.3 -06 43 38   0.4415  1.3376   132.1    33.7    23.6
    ...
    2022 10 18    04 18 26.4 -07 31 57   0.2736  1.2048   134.7    36.0    22.4
    ...
    2022 10 26    04 52 34.0 -07 27 32   0.1930  1.1345   132.9    40.0    21.6
    ...
    2022 11 01    05 38 14.4 -06 33 48   0.1388  1.0826   127.4    46.8    21.0
    2022 11 02    05 49 03.3 -06 15 57   0.1306  1.0741   125.8    48.5    20.9
    2022 11 03    06 01 11.3 -05 54 11   0.1227  1.0656   124.0    50.5    20.8
    ...
    2022 11 09    07 52 26.5 -01 39 03   0.08666 1.0158   104.5    70.8    20.5
    ...
    2022 11 17    11 23 23.2 +06 48 31   0.09486 0.9533    65.4   109.4    22.2
    ...
    2022 12 02    13 58 32.7 +08 35 47   0.2192  0.8558    48.2   120.7    24.6
    
    M. P. C. Staff               (C) Copyright 2022 MPC           M.P.E.C. 2022-V62
    


    Read MPEC 2022-V61 Read MPEC 2022-V63


    MPEC number:

    Enter an MPEC number in one of the following forms:

    • 1997-B01 (the full form)
    • J97B01 (the packed version of the full form)
    • B01 (the abbreviated form)